Location: Conjunto Santa Maria
(19.9513°S, 43.9599°W)
Time: 12:59:54
(UTC+00:00)

Cosmos 2112 Rocket - Pass Details

Date: 21 January 2021
Orbit: 757 x 786 km, 74.1° (Epoch: 04 March)

Event Time Altitude Azimuth Distance (km) Brightness Sun altitude
Exits shadow 23:44:11 33° 328° (NNW) 1,266 5.0 -26.4°
Maximum altitude 23:46:30 67° 256° (WSW) 824 4.2 -26.8°
Drops below altitude 10° 23:51:42 10° 173° (S) 2,305 6.8 -27.8°
Sets 23:54:07 0° 170° (S) 3,240 7.6 -28.3°
